| time (UTC) | temp F | wind direction | speed MPH | gust MPH | rain 1hr in | rain 24hr in | rain mn in | humidity % | barometer mb |
| 20260903162623 | 93 | 165 | 6.0 | 16.0 | 0.00 | 0.00 | 0.00 | 68 | 1011.0 |
| 20260903161122 | 93 | 162 | 8.0 | 15.0 | 0.00 | 0.00 | 0.00 | 69 | 1010.8 |
| 20260903155644 | 92 | 150 | 8.0 | 15.0 | 0.00 | 0.00 | 0.00 | 69 | 1011.0 |
| 20260903154135 | 92 | 96 | 8.0 | 16.0 | 0.00 | 0.00 | 0.00 | 70 | 1011.0 |
| 20260903152621 | 91 | 152 | 9.0 | 16.0 | 0.00 | 0.00 | 0.00 | 73 | 1011.1 |
| 20260903151119 | 90 | 143 | 8.0 | 13.0 | 0.00 | 0.00 | 0.00 | 75 | 1011.1 |
| 20260903145637 | 89 | 140 | 8.0 | 14.0 | 0.00 | 0.00 | 0.00 | 77 | 1011.1 |
| 20260903144135 | 88 | 127 | 7.0 | 14.0 | 0.00 | 0.00 | 0.00 | 80 | 1011.2 |
| 20260903142634 | 87 | 138 | 6.0 | 10.0 | 0.00 | 0.00 | 0.00 | 83 | 1011.2 |
| 20260903141133 | 86 | 155 | 7.0 | 10.0 | 0.00 | 0.00 | 0.00 | 84 | 1011.2 |
| 20260903135657 | 86 | 99 | 4.0 | 10.0 | 0.00 | 0.00 | 0.00 | 87 | 1011.3 |
| 20260903134126 | 84 | 166 | 5.0 | 9.0 | 0.00 | 0.00 | 0.00 | 89 | 1011.2 |
| 20260903132626 | 83 | 138 | 4.0 | 7.0 | 0.00 | 0.00 | 0.00 | 90 | 1011.2 |
| 20260903131138 | 83 | 142 | 2.0 | 8.0 | 0.00 | 0.00 | 0.00 | 91 | 1011.1 |
| 20260903125626 | 82 | 134 | 3.0 | 7.0 | 0.00 | 0.00 | 0.00 | 92 | 1011.1 |
| 20260903124202 | 82 | 116 | 2.0 | 6.0 | 0.00 | 0.00 | 0.00 | 93 | 1011.1 |
| 20260903122622 | 82 | 140 | 2.0 | 4.0 | 0.00 | 0.00 | 0.00 | 93 | 1011.0 |
| 20260903121118 | 82 | 153 | 3.0 | 6.0 | 0.00 | 0.00 | 0.00 | 93 | 1010.8 |
| 20260903115633 | 82 | 171 | 2.0 | 7.0 | 0.00 | 0.00 | 0.00 | 93 | 1010.8 |
| 20260903114121 | 82 | 158 | 3.0 | 6.0 | 0.00 | 0.00 | 0.00 | 93 | 1010.7 |
| 20260903112633 | 82 | 130 | 4.0 | 6.0 | 0.00 | 0.00 | 0.00 | 93 | 1010.8 |
| 20260903111130 | 82 | 136 | 2.0 | 7.0 | 0.00 | 0.00 | 0.00 | 93 | 1010.7 |
| 20260903105639 | 82 | 142 | 3.0 | 5.0 | 0.00 | 0.00 | 0.00 | 93 | 1010.7 |
| 20260903104122 | 82 | 144 | 2.0 | 7.0 | 0.00 | 0.00 | 0.00 | 92 | 1010.7 |
| 20260903042632 | 85 | 140 | 4.0 | 10.0 | 0.00 | 0.00 | 0.00 | 89 | 1012.0 |
| 20260903041132 | 85 | 116 | 7.0 | 10.0 | 0.00 | 0.00 | 0.00 | 89 | 1012.1 |
| 20260903035653 | 85 | 134 | 5.0 | 11.0 | 0.00 | 0.00 | 0.00 | 88 | 1011.8 |
| 20260903034143 | 85 | 169 | 5.0 | 12.0 | 0.00 | 0.00 | 0.00 | 88 | 1011.8 |
| 20260903032621 | 85 | 146 | 7.0 | 13.0 | 0.00 | 0.00 | 0.00 | 87 | 1011.7 |
| 20260903031120 | 85 | 105 | 7.0 | 13.0 | 0.00 | 0.00 | 0.00 | 87 | 1011.5 |
| 20260903025622 | 85 | 130 | 5.0 | 10.0 | 0.00 | 0.00 | 0.00 | 87 | 1011.5 |
| 20260903024123 | 85 | 119 | 4.0 | 12.0 | 0.00 | 0.00 | 0.00 | 86 | 1011.3 |
| 20260903022622 | 86 | 123 | 9.0 | 15.0 | 0.00 | 0.00 | 0.00 | 86 | 1010.9 |
| 20260903021141 | 86 | 108 | 8.0 | 16.0 | 0.00 | 0.00 | 0.00 | 85 | 1010.7 |
| 20260903015618 | 86 | 113 | 7.0 | 13.0 | 0.00 | 0.00 | 0.00 | 85 | 1010.6 |
| 20260903014135 | 86 | 118 | 7.0 | 13.0 | 0.00 | 0.00 | 0.00 | 84 | 1010.2 |
| 20260903012647 | 86 | 98 | 7.0 | 14.0 | 0.00 | 0.00 | 0.00 | 84 | 1010.2 |
| 20260903011145 | 87 | 161 | 7.0 | 18.0 | 0.00 | 0.00 | 0.00 | 83 | 1009.9 |
| 20260903005625 | 87 | 122 | 8.0 | 17.0 | 0.00 | 0.00 | 0.00 | 82 | 1009.9 |
| 20260903004124 | 88 | 113 | 12.0 | 17.0 | 0.00 | 0.00 | 0.00 | 81 | 1009.7 |
| 20260903002626 | 89 | 142 | 9.0 | 17.0 | 0.00 | 0.00 | 0.00 | 79 | 1009.7 |
| 20260903001123 | 90 | 128 | 7.0 | 16.0 | 0.00 | 0.00 | 0.00 | 78 | 1009.6 |
| 20260902235625 | 90 | 141 | 12.0 | 19.0 | 0.00 | 0.00 | 0.00 | 76 | 1009.4 |
| 20260902234142 | 91 | 114 | 10.0 | 18.0 | 0.00 | 0.00 | 0.00 | 75 | 1009.5 |
| 20260902232640 | 92 | 142 | 9.0 | 19.0 | 0.00 | 0.00 | 0.00 | 73 | 1009.5 |
| 20260902231124 | 93 | 90 | 10.0 | 18.0 | 0.00 | 0.00 | 0.00 | 71 | 1009.4 |
| 20260902225705 | 93 | 155 | 8.0 | 18.0 | 0.00 | 0.00 | 0.00 | 70 | 1009.3 |
| 20260902224133 | 94 | 126 | 9.0 | 17.0 | 0.00 | 0.00 | 0.00 | 67 | 1009.3 |
| 20260902222623 | 95 | 123 | 9.0 | 16.0 | 0.00 | 0.00 | 0.00 | 66 | 1009.1 |
| 20260902221121 | 95 | 123 | 10.0 | 18.0 | 0.00 | 0.00 | 0.00 | 64 | 1009.2 |
| 20260902215644 | 96 | 165 | 8.0 | 19.0 | 0.00 | 0.00 | 0.00 | 63 | 1009.3 |
| 20260902214200 | 97 | 139 | 6.0 | 17.0 | 0.00 | 0.00 | 0.00 | 63 | 1009.2 |
| 20260902212633 | 97 | 105 | 9.0 | 18.0 | 0.00 | 0.00 | 0.00 | 62 | 1009.4 |
| 20260902211135 | 97 | 168 | 6.0 | 18.0 | 0.00 | 0.00 | 0.00 | 61 | 1009.6 |
| 20260902205632 | 97 | 148 | 10.0 | 19.0 | 0.00 | 0.00 | 0.00 | 60 | 1009.7 |
| 20260902204124 | 98 | 135 | 8.0 | 15.0 | 0.00 | 0.00 | 0.00 | 58 | 1009.7 |
| 20260902202626 | 98 | 108 | 8.0 | 16.0 | 0.00 | 0.00 | 0.00 | 59 | 1009.9 |
| 20260902201125 | 98 | 213 | 9.0 | 16.0 | 0.00 | 0.00 | 0.00 | 58 | 1010.1 |
| 20260902195626 | 98 | 95 | 9.0 | 15.0 | 0.00 | 0.00 | 0.00 | 59 | 1010.2 |
| 20260902194137 | 99 | 175 | 9.0 | 15.0 | 0.00 | 0.00 | 0.00 | 56 | 1010.4 |
| 20260902192630 | 98 | 135 | 6.0 | 12.0 | 0.00 | 0.00 | 0.00 | 58 | 1010.5 |
| 20260902191128 | 99 | 153 | 9.0 | 17.0 | 0.00 | 0.00 | 0.00 | 56 | 1010.7 |
| 20260902185628 | 99 | 160 | 6.0 | 13.0 | 0.00 | 0.00 | 0.00 | 54 | 1010.9 |
| 20260902184124 | 98 | 133 | 4.0 | 10.0 | 0.00 | 0.00 | 0.00 | 54 | 1011.2 |
| 20260902182626 | 99 | 149 | 7.0 | 15.0 | 0.00 | 0.00 | 0.00 | 55 | 1011.4 |
| 20260902181121 | 98 | 135 | 7.0 | 12.0 | 0.00 | 0.00 | 0.00 | 54 | 1011.7 |
| 20260902175620 | 97 | 219 | 7.0 | 14.0 | 0.00 | 0.00 | 0.00 | 57 | 1012.0 |
| 20260902174118 | 97 | 166 | 7.0 | 11.0 | 0.00 | 0.00 | 0.00 | 60 | 1012.3 |
| 20260902172619 | 97 | 150 | 3.0 | 11.0 | 0.00 | 0.00 | 0.00 | 60 | 1012.6 |
| 20260902171135 | 96 | 130 | 9.0 | 13.0 | 0.00 | 0.00 | 0.00 | 62 | 1012.8 |
| 20260902165645 | 95 | 163 | 6.0 | 15.0 | 0.00 | 0.00 | 0.00 | 60 | 1012.9 |
| 20260902164144 | 95 | 117 | 8.0 | 15.0 | 0.00 | 0.00 | 0.00 | 63 | 1013.0 |